NOAA 16 DEB

Satellite information

Favourite Embed

Satellite Type and Status

DEBRISIN ORBIT

Key statistics

Satellite NOAA 16 DEB at a glance.

Uptime

8995

Days in orbit

Revolutions

≈ 14.5

Per day

Orbit

SSO

Sun Synchronous Orbit

Inclination

98.9

Latest

Satellite identification and parameters

Extended collection of information and parameters for NOAA 16 DEB.

Object identification

Identified? True

Debris? True

Object name: NOAA 16 DEB

International designator: 2000-055MU

Object number (NORAD): 41520

Object ID (CCSDS): 41520

Country: UNITED STATES OF AMERICA (US)

Current information (Y/N): Y

RCS size: SMALL

Orbital parameters

Period: 99.152 minutes

Inclination: 98.8825 deg

SMA: 7096.237 km

Apoapsis: 742.789 km

Periapsis: 693.415 km

RAAN: 243.9635 deg

Eccentricy: 0.0034789

Argument of periapsis: 137.7455 deg

Mean anomaly: 222.6429 deg

Mean motion: 14.52314136 rev/day

Mean motion (dot): 0.00025571 rev/day2

B* drag term: 0.0062279 1/REarth

Two-line elements (TLE)

Creation date: May 8, 2025, 3:01 a.m.

Reference frame: TEME

Reference center: EARTH

Epoch: May 7, 2025, 6:47 a.m. UTC

TLE line 0: 0 NOAA 16 DEB

TLE line 1: 1 41520U 00055MU 25127.28298446 .00025571 00000-0 62279-2 0 9990

TLE line 2: 2 41520 98.8825 243.9635 0034789 137.7455 222.6429 14.52314136467351

Live tracking on map

Real-time ground track for satellite NOAA 16 DEB.

In-orbit conjunctions

A list of the most updated potential collisions computed for object NOAA 16 DEB.

Target Orbit TCA Probability of collision Miss distance Type
CZ-6A DEB LEO 2025-01-22 19:27:11 0.0001150579 416.0 (m) DEBRIS
PICOSAT 6 SSO 2024-12-30 12:00:05 0.0001361276 409.0 (m) PAYLOAD

Associated space launch

The NOAA K, L and M POES satellites begin the fifth generation of improved environmental monitoring in support of NOAA missions. The instrument payload has significant improvements and additions/deletions. The instrument changes have effected the spacecraft subsystems and data formats.

NOAA 16 DEB was lifted into orbit during the mission ‘Titan II SLV | NOAA 16’, on board a Titan II SLV space rocket.

The launch took place on Sept. 21, 2000, 10:22 a.m. from Space Launch Complex 4W.

For more information about the launch, click the button.

Launch to space Titan II SLV | NOAA 16
Titan II SLV | NOAA 16

Agency: N/A

Status: Launch Successful

Launch date: Sept. 21, 2000, 10:22 a.m. UTC

Rocket: Titan II SLV

Launch pad: Space Launch Complex 4W

Location: Vandenberg SFB, CA, USA

...

Latest news about this satellite

There are no fresh news available about this satellite. Check back as we update our databases every day.


Newsletter sign-up

Weekly statistics, charts and insights to help you stay on top of the space industry.